FLOCK 3P-13 (42040 NORAD) Tracking and Keplerian Element Data

This shows tracking and keplerian element data for the satellite.

Feedback or suggestion? Click here.




ElementValue
Catalog42040
NameFLOCK 3P-13
Epoch Orbit17646
Epoch Day114.83525328
Epoch Year2020
RAAN184.0095
Inclination97.3686
Eccentricity0.0008259
Argument of Perigee139.5633
Mean Anonmoly220.6221
Mean Motion15.27483192
Decay Rate2.811E-05
L11 42040U 17008CW 20114.83525328 .00002811 00000-0 10719-3 0 9993
L22 42040 97.3686 184.0095 0008259 139.5633 220.6221 15.27483192176463

Live tracking and technical data element details for FLOCK 3P-13 (NORAD 42040). FLOCK 3P-13 can be tracked NOW for your location showing map with azimuth and elevation plus other details from your city location.

Track the satellite on the map from your city or location and see movement details for azimuth, elevation, latitude, longitude, range, height, and movement on the map or in text.







IsCatalogInMostPopularTable: catalog: 42040, numindb: 560
Update: records affected: 1



GetName: 42040 FLOCK 3P-13

Hit Count: updated at: Tue, 28 Sep 2021 16:48:14 GMT